Find Local Weather

World > North America > United States > Wisconsin

Kimberly, Wisconsin Regional Weather

Lat: 44.28N, Lon: 88.31W
Wx Zone: WIZ038
Warning FLW WEATHER ALERT - (More Info. Click Here) Warning
Feedback

Kimberly, WI Regional Weather

Expires:201903190400;;583954
ASUS43 KMKX 190320
RWRWI 

WISCONSIN REGIONAL WEATHER ROUNDUP
NATIONAL WEATHER SERVICE MILWAUKEE/SULLIVAN WI
1000 PM CDT MON MAR 18 2019

NOTE: "FAIR" INDICATES FEW OR NO CLOUDS BELOW 12,000 FEET WITH NO
SIGNIFICANT WEATHER AND/OR OBSTRUCTIONS TO VISIBILITY.


WIZ011>013-019>022-031-037>040-048>050-190400-
NORTHEAST WISCONSIN
  
CITY           SKY/WX    TMP DP  RH WIND       PRES   REMARKS
ANTIGO         FAIR      26  21  80 SW6       30.26R WCI  19          
SHAWANO        FAIR      30  19  62 CALM      30.29R                  
OCONTO         FAIR      28  22  78 SW3       30.29S                  
STURGEON BAY   FAIR      33  22  63 SW6       30.29S WCI  28          
GREEN BAY      FAIR      35  24  64 SW5       30.30S WCI  31          
MANITOWOC      FAIR      33  25  72 SW8       30.31S WCI  26          
APPLETON       PTCLDY    32  18  55 SW5       30.28S WCI  27          
CLINTONVILLE   FAIR      32  21  65 SW3       30.29S                  
OSHKOSH        FAIR      32  23  69 CALM      30.30S                  
$$
 

SKY/WX - Weather  TMP - Temperature  DP - Dew Point  RH - Relative Humidity
WIND - Wind Direction/Speed PRES - Barometric Pressure VSB - Visibility
WCI - Wind Chill Index E13G22 Wind - East Wind 13 mph/Gusts of 22 mph